STARLINK-32725, 62505

Orbit data source: Space-Track

STARLINK-32725, 62505 is a payload satellite owned by SpaceX/Seattle (US) in LEO that was launched on Mon, 06 Jan 2025 UTC via an FALCON 9 launch vehicle from the Air Force Eastern Test Range (AFETR). Payload-class satellites include a variety of spacecraft equipped with specific instruments for various scientific and technological missions. These include communications satellites like Starlink; space stations such as the ISS; scientific satellites like the Hubble; Earth observation satellites from companies like Planet Labs, Umbra, and HawkEye 360; GPS; miniature CubeSats for education and research; and military/defense satellites.

Loading next visibility...
Identifier
62505, 2025-003U
Orbit
LEO
Country
Flag of USUS
Related business
Manufacturer
SpaceX/Seattle
Mission
Operational Commercial Communications
Bus & Motor
STARLINK V2M, Unknown motor
Mass
730 kg wet, ~700 kg dry
Launch date (UTC)
2025-01-06 (1 year ago)
Launch vehicle
FALCON 9
Launch site
Air Force Eastern Test Range (AFETR)
Object type
Payload
Rocket body
Debris
Shape & HBR
Box + 2 Pan, 17.7 m
Radar Cross Section
33.884 m², Large (>1 m²)

Expand to show TLE details & history
Last TLE update: 1 day ago

TLE from 1 day ago
0 STARLINK-32725
1 62505U 25003U   26170.74047932  .00024191  00000-0  88525-3 0  9998
2 62505  42.9999  72.2134 0001220 266.8132  93.2580 15.27597582 82169
Epoch: 2026-06-19T17:46Z
TLE epoch observation values (Epoch: 2026-06-19T17:46:17.413Z)
Latitude
-0.00001°
Longitude
-102.32428°
Altitude
482.82 km
Speed
7.626 km/s
True Right ascension
04h 48m 51s
True Declination
0° 00' 00"
Sunlit
Object was in daylight at epoch
Visualization orbit readout
Latitude
Unknown
Longitude
Unknown
Altitude
Unknown
Speed
Unknown
Apparent Right ascension
Unknown
Apparent Declination
Unknown
Sunlit
N/A
Visualization observer readout
Local Sidereal Time
08:33:41
Azimuth
Unknown
Elevation
Unknown
Doppler factor
Unknown
Orbital elements
Apogee altitude
485.779 km
Perigee altitude
484.104 km
Semi-major axis
6,863.079 km
Eccentricity
0.00012
Inclination
42.9999°
RAAN
72.2134°
Arg. of periapsis
266.8132°
True anomaly
93.27196°
Mean anomaly
93.258°
Eccentric anomaly
93.26498°
Mean motion
3.81737 °/min
Orbital period
94.31 mins
BSTAR
0.00088525
Loading maneuver chart data...
Computing Atmospheric mass density...
Loading historical data...
Loading historical data...
Loading historical data...
Loading historical data...
Loading historical data...
Loading historical data...
Loading historical data...

Documentation

Showing up to 5 results
|